This is the latest recevied weather packets stored in our database for station/object 9A7DI-13. If no packets are shown the sender has not sent any weather packets the latest 10 day(s).
| Time | Temp. | Humidity | Pressure | Rain* | Wind** | Luminosity | Snow |
|---|---|---|---|---|---|---|---|
| 1788198408 | 28.33° C | 50% | 1020.6 hPa | - | - | - | - |
| 1788197809 | 28.89° C | 48% | 1020.6 hPa | - | - | - | - |
| 1788197208 | 29.44° C | 46% | 1020.5 hPa | - | - | - | - |
| 1788196608 | 30° C | 44% | 1020.5 hPa | - | - | - | - |
| 1788196008 | 31.11° C | 40% | 1020.3 hPa | - | - | - | - |
| 1788195412 | 31.67° C | 38% | 1020.3 hPa | - | - | - | - |
| 1788194808 | 32.22° C | 35% | 1020.3 hPa | - | - | - | - |
| 1788194208 | 32.22° C | 36% | 1020.4 hPa | - | - | - | - |
| 1788193009 | 32.78° C | 33% | 1020.3 hPa | - | - | - | - |
| 1788192408 | 33.33° C | 32% | 1020.4 hPa | - | - | - | - |
| 1788191808 | 33.33° C | 31% | 1020.3 hPa | - | - | - | - |
| 1788191208 | 33.89° C | 30% | 1020.3 hPa | - | - | - | - |
| 1788190608 | 33.89° C | 29% | 1020.3 hPa | - | - | - | - |
| 1788190009 | 33.89° C | 29% | 1020.3 hPa | - | - | - | - |
| 1788189409 | 33.89° C | 27% | 1020.4 hPa | - | - | - | - |
| 1788188809 | 34.44° C | 28% | 1020.4 hPa | - | - | - | - |
| 1788188208 | 34.44° C | 29% | 1020.5 hPa | - | - | - | - |
| 1788187608 | 34.44° C | 27% | 1020.6 hPa | - | - | - | - |
| 1788187009 | 34.44° C | 26% | 1020.7 hPa | - | - | - | - |
| 1788186408 | 34.44° C | 26% | 1020.7 hPa | - | - | - | - |
| 1788185808 | 34.44° C | 26% | 1020.8 hPa | - | - | - | - |
| 1788185208 | 34.44° C | 27% | 1020.8 hPa | - | - | - | - |
| 1788184609 | 35° C | 26% | 1020.9 hPa | - | - | - | - |
| 1788184008 | 35° C | 26% | 1021 hPa | - | - | - | - |
| 1788183408 | 35° C | 26% | 1021 hPa | - | - | - | - |
* Rain since midnight (hover to see other rain measurements)
** Current wind speed in m/s (hover to see current wind gust speed)